User: anonymous   Login
Location: Berg
(47.2344°N, 9.5296°E)
Time: 17:31:30
(UTC+00:00)
Language:

ESTCUBE 1 - Orbit

View from above orbital plane
View from above orbital plane
View from above satellite
View from above satellite

Ground track
Ground track

The orbit data is extracted from the following two-line orbital elements,

1 39161U 13021C   21337.20713568  .00000309  00000-0  56266-4 0  9996
2 39161  97.9283  54.4257 0008874 339.0362  21.0500 14.72593213460588
Epoch (UTC): 03 December 2021 04:58:16
Eccentricity: 0.0008874
inclination: 97.9283°
perigee height: 646 km
apogee height: 659 km
right ascension of ascending node: 54.4257°
argument of perigee: 339.0362°
revolutions per day: 14.72593213
mean anomaly at epoch: 21.0500°
orbit number at epoch: 46058

The dashed part of the orbit path shows where the satellite is in the earth's shadow,  

DLR